Location: Browne Barr
(41.2080°N, 111.9480°W)
Time: 04:12:08
(UTC+00:00)

X-37B - Pass Details

Date: 04 August 2021
Orbit: 381 x 393 km, 45.0° (Epoch: 29 August)

Event Time Altitude Azimuth Distance (km) Brightness Sun altitude
Exits shadow 09:57:45 26° 89° (E) 781 2.4 -22.8°
Drops below altitude 10° 09:59:23 10° 76° (ENE) 1,396 4.1 -22.6°
Sets 10:01:29 0° 71° (ENE) 2,252 5.4 -22.4°
